map of MAD home
MAD - Airport
Location
City:  Madrid, Madrid, Spain
Name:Adolfo Suárez Madrid-Barajas International Airport
ICAO:LEMD
IATA:MAD

Details
Type:Airport (Aerodrome, Airfield)
Use:Public/Civil, International (customs port of entry)
Latitude:40°29'37"N (40.493556)
Longitude:3°34'00"W (-3.566763)
Datum:WGS 1984
Elevation:2000 ft (610 m)
Variation:0.63°W (WMM2015 magnetic declination)
0.12° annual change
Runways:4
Longest:14272 × 197 ft (4350 × 60 m), paved

Time
Time Zone:UTC+1 (DST+2)
Local Time:

Weather
METAR:LEMD 191930Z VRB02KT CAVOK 31/13 Q1017 NOSIG
TAF:LEMD 191700Z 1918/2024 VRB05KT CAVOK TX34/2015Z TN18/2005Z PROB30
TEMPO 1918/1921 15008KT
BECMG 1923/2001 06007KT PROB30
TEMPO 2011/2018 16007KT FEW045TCU

Related Locations
Nearby:
Farthest:NZPO: 12430 mi / 20005 km
Porangahau, HKB, NZ

Find:

   beyond  
but within

Other Information
Maps:
NOTAMs:
Links:
Sources:

  
  • flag of Spain
  • flag of Madrid
  

Sectional Chart

Flight Planning
at skyvector.com

Satellite Image

Google Maps Satellite view

 

Copyright © 2004-2018 Karl L. Swartz. All rights reserved.
The Great Circle Mapper name and logo are trademarks of the Great Circle Mapper.
All other trademarks mentioned herein belong to their respective owners.
Please see credits for attibutions and further copyright information.

  Follow gcmap on Facebook Follow gcmap on Twitter Follow gcmap on Google+ GCmap on LinkedIn

hCard Microformat

Geo Microformat